Location: Unspecified
(0.0000°N, 0.0000°E)
Time: 23:14:53
(UTC+00:00)

SRMSAT - Pass Details

Date: 19 July 2019
Orbit: 848 x 866 km, 20.0° (Epoch: 16 August)

Event Time Altitude Azimuth Distance (km) Brightness Sun altitude
Rises 19:50:01 0° 273° (W) 3,429 ? -24.1°
Reaches altitude 10° 19:52:57 10° 284° (WNW) 2,490 ? -24.8°
Maximum altitude 19:58:01 28° 342° (NNW) 1,551 ? -26.0°
Enters shadow 20:01:55 15° 32° (NNE) 2,159 ? -26.9°
